Location: Columbia
(38.9520°N, 92.3340°W)
Time: 10:36:28
(UTC-06:00)

Daily predictions for brighter satellites

Satellite Brightness Start Highest point End
(mag) Time Altitude Azimuth Time Altitude Azimuth Time Altitude Azimuth
NOSS 3-2 (A) 4.3 18:11:33 10° SW 18:17:17 51° NW 18:23:39 10° NNE
SPOT 3 Rocket 3.8 18:13:32 10° SE 18:18:28 47° ENE 18:23:27 10° N
Aureole 3 4.3 18:13:44 10° S 18:19:33 52° E 18:24:10 10° NNE
Cosmos 2082 3.8 18:18:11 10° SSW 18:23:48 85° WNW 18:29:29 10° NNE
Okean 3 3.9 18:19:55 10° N 18:23:50 38° ENE 18:27:44 10° SSE
Cosmos 2333 Rocket 3.6 18:18:32 10° NW 18:23:52 43° WSW 18:29:09 10° S
Cosmos 1674 Rocket 3.7 18:20:21 10° N 18:24:35 50° E 18:28:46 10° SSE
OAO 2 Rocket 4.0 18:20:25 10° SW 18:25:05 41° SSE 18:29:41 10° E
Cosmos 405 3.0 18:26:56 10° S 18:30:25 85° W 18:33:57 10° N
Cosmos 1420 Rocket 4.3 18:26:07 10° N 18:31:11 46° ENE 18:36:16 10° SE
Cosmos 921 Rocket 4.2 18:28:13 10° N 18:31:52 24° ENE 18:35:28 10° ESE
Cosmos 1908 Rocket 4.0 18:27:58 10° SSE 18:32:09 41° E 18:36:21 10° NNE
YAOGAN 1 3.5 18:29:38 10° S 18:33:51 53° W 18:38:06 10° NNW
Meteor 1-25 Rocket 4.2 18:32:00 10° S 18:37:24 58° E 18:42:51 10° NNE
Cosmos 1733 Rocket 3.5 18:33:25 10° SSW 18:37:42 66° W 18:42:00 10° N
Tiangong 2 1.6 18:35:52 10° WNW 18:39:00 57° SSW 18:42:07 10° SE
FREGAT/IRIS 3.4 18:38:08 10° SE 18:40:45 29° ENE 18:43:23 10° N
EO 1 Del DPAF 3.1 18:40:19 10° NNE 18:44:09 80° ESE 18:47:57 10° S
Cosmos 1437 Rocket 3.6 18:40:41 10° SSE 18:44:12 30° E 18:47:47 10° NNE
Cosmos 44 Rocket 3.4 18:41:50 10° NNW 18:46:50 60° ENE 18:51:54 10° SE
NOAA 12 4.5 18:44:48 10° S 18:50:04 71° WSW 18:55:24 10° NNW
Landsat 4 4.2 18:48:20 10° N 18:52:02 61° WNW 18:55:44 10° SSW
Gbstr 26 Del rocket 3.5 18:50:04 10° SSW 18:53:22 31° SE 18:55:12 20° E
SeaSat 1 3.4 18:50:15 14° ESE 18:53:32 27° NE 18:57:40 10° N
USA 215 3.4 18:53:17 10° NE 18:59:41 54° SE 19:06:02 10° SSW
Cosmos 1975 Rocket 3.6 18:56:06 10° N 19:00:12 35° ENE 19:04:18 10° SE
Envisat 3.6 18:57:29 10° SE 19:02:03 35° ENE 19:06:37 10° N
COSMOS 2455 3.8 18:58:21 10° SSE 19:03:08 25° ESE 19:05:36 19° ENE
Resurs 01 Rocket 2.9 19:06:03 21° ENE 19:06:03 21° ENE 19:09:14 10° NNE
ALOS 4.2 19:02:45 10° SSW 19:06:57 33° W 19:11:11 10° NNW
CZ-4C R/B 4.1 19:02:34 10° N 19:07:53 22° NE 19:10:41 18° ENE
FengYun 1-2 T 4.2 19:02:49 10° SSE 19:08:20 88° ENE 19:13:50 10° NNW
HJ-1C 3.4 19:05:13 10° SSE 19:08:34 55° ENE 19:11:55 10° N
OE (NEXTSAT) 4.4 19:06:27 10° SW 19:09:58 65° SSE 19:11:19 34° ENE
Thor Agena Rocket 3.6 19:05:29 10° NNE 19:10:25 49° E 19:15:17 10° S
Cosmos 1513 Rocket 4.5 19:05:33 10° N 19:11:56 85° E 19:18:09 10° S
BREEZE-M DEB (TANK) 3.5 19:09:18 10° SSW 19:12:02 40° ESE 19:15:23 20° ENE
Cosmos 1943 4.4 19:08:20 10° N 19:12:36 21° NE 19:13:11 21° ENE
Cosmos 44 3.9 19:08:15 10° NW 19:13:16 61° WSW 19:18:29 10° SSE
Cosmos 1269 Rocket 3.9 19:08:47 10° S 19:14:02 76° ESE 19:19:19 10° NNE
USA 32 3.9 19:08:59 10° S 19:14:12 81° E 19:19:27 10° N
Cosmos 494 Rocket 4.5 19:11:05 10° SSE 19:15:48 36° E 19:19:03 18° NE
Cosmos 1378 Rocket 4.1 19:18:04 10° NNW 19:22:25 60° W 19:26:46 10° S
USA 186 4.2 19:27:59 13° NNE 19:27:59 13° NNE 19:28:29 10° N
ATLAS CENTAUR R/B 3.6 19:25:05 10° N 19:26:07 13° NNE 19:26:07 13° NNE
SJ-6B 2.6 19:25:01 10° SSE 19:28:46 89° ENE 19:32:38 10° NNW
Cosmos 1782 Rocket 3.7 19:25:31 10° S 19:29:57 77° W 19:34:24 10° N
SL-16 R/B 3.0 19:26:16 10° NNW 19:31:44 51° WSW 19:37:10 10° S
Tsikada Rocket 4.0 19:25:34 10° S 19:31:58 80° E 19:38:24 10° N
USA 267 4.3 19:30:04 23° ENE 19:32:26 28° NNE 19:37:49 10° NNW
CENTAUR R/B 3.3 19:26:52 10° SW 19:32:41 51° NW 19:39:22 10° NNE
ERS-2 3.5 19:33:01 10° S 19:36:30 40° W 19:40:00 10° NNW
Meteor 1-13 Rocket 4.0 19:39:56 10° N 19:45:28 72° E 19:49:05 22° SSE
Cosmos 1331 Rocket 4.0 19:44:30 10° N 19:49:46 59° ENE 19:50:04 58° E
Okean 2 Rocket 3.1 19:46:06 10° SSW 19:50:29 76° W 19:54:55 10° N
Cosmos 1603 3.5 19:44:51 10° NNW 19:50:30 74° ENE 19:52:03 48° SE
CZ-2D R/B 3.8 19:47:41 15° S 19:50:48 57° W 19:54:38 10° NNW
Spot 2 Rocket 3.8 19:52:33 49° NE 19:52:33 49° NE 19:56:46 10° N
Geosat 3.8 19:54:24 51° NE 19:55:41 77° ESE 20:00:43 10° SSW
Cosmos 2263 Rocket 2.9 20:01:29 10° S 20:04:55 38° S 20:04:55 38° S
OAO 2 Rocket 3.7 20:04:42 10° WSW 20:08:56 51° SSW 20:08:56 51° SSW
Meteor 2-4 Rocket 4.1 20:20:17 10° NNW 20:25:59 61° W 20:27:30 45° SSW
Meteor 1-5 Rocket 4.4 20:21:42 10° SSW 20:27:33 75° W 20:33:32 10° N
SeaSat 1 3.6 20:30:04 36° SW 20:30:53 39° WSW 20:35:29 10° NW
Cosmos 1634 Rocket 4.2 20:29:43 10° NNW 20:35:48 64° W 20:36:51 55° SW
Resurs 01 Rocket 3.6 20:43:36 27° WNW 20:43:36 27° WNW 20:46:11 10° NNW
USA 215 4.1 20:40:21 34° NNE 20:42:34 45° NNW 20:48:42 10° WSW
COSMOS 2455 3.6 20:42:54 10° SW 20:48:42 49° WNW 20:48:54 49° NW
Cosmos 1943 4.4 20:51:28 10° NNW 20:55:02 37° NW 20:55:02 37° NW
CZ-4C R/B 3.2 20:50:09 10° NNW 20:55:56 60° NNW 20:55:56 60° NNW
USA 267 4.3 21:17:24 40° NW 21:17:24 40° NW 21:21:21 10° NW
